Theta_e
298 298 300 299 300 295 298 299 297 298 300 300 299 298 297 297 298 295 301 301 303 309 309 315 317 317 317 319 320 321 322 324 325 323 323 325 328 331 334 338 338 340 341 343 343 345 345 344 344 343 346 348 348 348 348 349 351 352 352 354 354 355 356
299 300 299 299 299 299 299 297 298 301 302 301 299 294 296 295 292 295 300 298 300 301 298 313 314 313 314 316 317 319 322 323 323 323 323 323 324 327 333 338 341 341 341 342 342 344 345 345 344 344 348 347 350 349 348 348 350 350 351 352 352 354 355
297 301 299 298 301 301 298 297 300 297 294 294 298 298 290 290 291 294 296 298 300 302 302 310 310 311 312 314 316 317 317 319 321 322 323 324 325 327 329 332 337 341 341 341 342 342 344 345 347 346 346 346 347 348 348 347 348 348 349 349 352 353 354
296 298 298 292 294 300 299 300 299 298 299 300 298 298 298 299 293 293 293 297 294 304 306 310 310 312 313 314 315 316 316 317 318 321 322 323 324 326 328 330 334 337 341 341 341 340 341 343 344 344 344 344 344 345 348 347 348 350 350 349 352 352 353
296 292 294 291 293 293 296 297 295 297 297 298 300 298 296 295 295 296 294 291 295 303 312 312 312 313 314 314 314 316 316 317 318 320 320 322 324 325 327 329 331 335 340 342 341 342 341 342 344 344 343 343 343 344 345 346 347 347 347 348 350 352 352
291 291 295 294 294 295 294 294 292 293 294 295 294 292 296 295 296 293 295 290 296 303 315 313 313 315 314 314 314 315 316 316 318 318 320 322 322 324 327 328 330 332 335 341 343 342 342 341 341 342 343 343 343 343 344 346 346 346 346 347 350 351 353
292 293 296 298 297 296 295 296 293 295 294 295 296 291 292 295 294 297 299 293 293 306 315 315 313 314 314 314 315 314 315 316 317 319 320 321 323 324 325 327 329 330 332 335 338 343 344 342 342 342 342 342 342 342 343 345 345 346 346 347 349 352 352
294 295 297 297 298 296 295 295 296 295 293 293 293 294 297 295 294 296 296 293 294 306 316 316 315 315 315 315 314 314 314 316 317 318 318 319 321 323 325 326 327 329 330 332 334 336 337 344 344 342 342 343 342 342 342 344 344 346 346 347 348 351 351
290 293 295 294 296 296 293 292 294 295 296 295 294 297 299 294 291 292 296 290 293 307 316 316 314 314 313 313 313 314 313 314 315 317 318 318 320 322 322 324 325 327 327 327 330 332 335 337 339 346 344 343 342 342 342 343 344 345 347 348 348 349 349
283 283 284 287 290 291 293 294 294 294 294 294 295 293 295 290 293 294 293 291 299 308 313 312 313 312 313 313 313 314 314 314 314 316 317 317 318 318 321 322 323 324 325 326 327 329 332 334 336 339 343 345 343 342 343 344 344 345 345 347 348 349 349
289 290 290 290 294 292 289 290 292 292 294 295 295 296 295 291 293 293 294 297 299 304 307 309 311 311 310 311 312 312 312 314 315 316 316 317 317 317 318 320 321 323 325 325 326 328 329 332 334 336 338 339 345 345 344 344 345 345 346 347 349 348 349
291 292 291 292 293 290 290 290 290 292 293 294 297 294 291 296 295 290 295 301 301 302 306 308 309 310 311 311 312 312 313 313 314 314 316 318 316 317 317 318 319 320 322 324 325 326 328 330 332 334 336 337 340 343 347 345 344 345 346 347 348 349 349
291 291 292 292 292 291 291 291 290 291 293 295 294 295 296 295 294 292 298 302 301 303 306 308 309 310 310 311 312 313 314 314 315 315 314 314 314 315 316 316 317 318 319 322 323 324 327 329 330 332 333 336 338 341 344 348 346 346 348 347 348 348 349
291 291 292 292 291 290 291 292 293 293 294 295 297 301 303 300 299 301 302 302 301 304 307 309 310 312 312 312 314 314 313 313 314 313 313 313 313 314 315 316 317 317 318 319 321 323 325 326 329 330 331 333 335 338 340 343 347 350 348 350 349 347 348
289 291 292 292 291 290 290 292 294 295 296 297 298 300 303 304 302 302 302 301 301 306 309 310 312 314 314 313 312 312 313 313 313 312 312 313 312 313 315 317 317 317 318 318 319 322 323 325 327 328 331 332 334 336 339 342 345 349 352 351 350 349 349
287 290 290 291 291 290 290 291 293 294 294 295 297 296 302 302 300 301 301 300 299 305 310 312 312 313 312 310 311 312 312 313 313 313 312 313 313 313 314 316 318 317 317 317 318 319 322 323 325 327 328 331 333 334 338 342 344 348 351 352 349 351 352
286 290 290 290 289 289 287 288 291 295 297 301 302 303 305 304 304 299 298 300 305 307 310 308 309 311 311 311 310 311 312 313 313 313 312 313 314 314 315 316 317 318 317 318 318 319 321 321 323 324 326 328 330 333 336 341 344 347 350 351 352 352 353
287 289 289 290 287 281 283 294 296 296 295 297 298 299 301 304 306 303 305 306 308 308 308 307 308 309 310 312 313 315 313 312 313 313 314 314 314 315 316 316 317 319 320 319 319 321 321 322 322 324 326 326 329 332 336 340 340 344 346 351 355 353 353
286 289 289 286 280 282 292 295 298 299 298 299 301 301 302 304 305 306 305 305 306 307 308 308 310 311 313 314 314 314 315 315 313 313 314 315 315 315 315 317 318 319 320 321 320 320 320 321 322 322 324 325 327 330 333 335 336 338 341 344 348 355 355
290 287 286 278 281 290 293 296 299 302 301 304 302 299 300 301 302 304 303 304 306 307 307 308 310 312 313 315 316 314 313 312 311 311 313 314 315 315 316 317 318 319 321 322 322 321 322 321 320 321 322 326 326 327 330 331 333 334 335 338 340 343 348
284 287 286 285 290 289 292 294 296 299 296 299 298 292 297 299 302 303 303 304 305 306 306 306 307 311 313 312 313 313 311 310 310 310 311 314 316 317 318 318 318 320 322 324 325 324 323 321 320 320 323 325 326 327 327 328 330 330 330 332 335 338 339
290 286 284 285 285 282 288 297 300 300 301 301 301 296 295 300 301 303 303 302 303 304 303 304 304 308 310 306 308 312 309 309 309 310 311 313 314 315 318 319 319 320 321 324 325 324 323 323 322 322 323 325 327 326 326 326 327 328 328 328 330 333 335
288 287 284 284 281 285 294 297 299 301 301 301 302 294 289 299 300 300 301 300 301 302 301 302 303 303 301 302 307 309 307 308 309 308 310 311 312 313 315 317 318 319 321 323 324 323 323 322 323 323 323 325 326 326 326 325 326 325 326 327 327 328 330
289 288 285 283 288 287 294 298 299 300 302 301 298 284 286 297 300 300 300 299 300 301 302 302 301 300 297 299 304 306 306 307 309 309 310 310 311 312 313 316 318 320 322 323 323 322 320 323 324 322 322 323 326 326 326 326 325 324 324 326 328 330 331
290 288 287 288 290 295 299 299 301 301 302 299 288 283 294 299 300 300 300 300 300 302 301 302 299 303 304 304 305 307 307 307 308 310 311 311 311 311 312 313 319 319 319 319 320 321 323 324 324 322 322 323 324 325 325 325 323 323 325 327 329 330 330
288 289 286 287 291 297 300 301 301 303 297 287 287 296 299 301 300 301 301 300 302 302 302 302 302 303 305 306 306 307 307 307 308 309 310 311 311 313 314 316 316 317 317 319 320 320 323 324 324 322 322 323 324 325 325 324 324 325 326 327 328 329 329
289 289 287 285 281 295 300 300 298 300 292 295 297 300 301 301 301 300 301 301 302 302 302 303 304 304 304 305 306 306 307 308 308 309 309 310 310 311 312 313 314 315 315 317 318 320 321 323 325 324 323 323 324 325 324 324 325 326 326 326 326 327 329
286 286 284 285 294 298 300 300 295 299 300 301 302 301 299 301 301 301 301 302 303 303 303 302 303 304 304 305 306 307 307 308 309 309 310 311 311 312 313 313 313 315 315 317 318 321 322 324 325 325 323 323 324 324 325 325 326 326 326 325 326 327 328
291 290 292 297 299 300 301 301 299 301 302 303 303 302 301 300 301 303 302 302 303 304 303 303 303 303 304 305 306 305 306 307 308 308 309 310 311 311 312 312 315 315 315 316 318 321 323 324 325 325 324 323 324 324 326 327 326 325 325 326 326 327 327
298 299 299 300 300 299 300 300 301 300 301 303 303 302 301 302 302 303 302 303 303 304 305 303 303 303 304 305 305 306 307 307 308 310 310 310 312 312 313 313 314 315 316 317 318 319 322 324 324 324 323 324 324 325 325 326 325 325 325 326 327 327 327
293 289 298 297 299 300 300 300 301 301 302 303 303 302 302 302 303 303 304 304 304 304 305 304 303 303 305 305 306 307 307 307 308 308 309 310 311 311 312 314 315 315 316 315 316 318 319 322 324 323 323 324 325 325 324 323 324 324 325 326 327 328 326
293 293 298 299 301 302 300 300 299 299 301 302 303 303 303 303 304 304 304 305 304 305 304 305 304 304 305 304 305 305 306 306 307 308 309 310 310 312 313 314 315 315 315 315 316 318 319 322 324 323 322 323 324 325 323 323 323 323 324 325 326 325 325
297 298 298 298 298 298 299 300 301 302 302 302 302 303 303 303 303 304 305 306 305 305 305 306 305 304 305 305 306 305 306 306 307 308 309 310 311 312 312 313 314 314 314 315 316 318 318 322 324 324 323 323 324 323 322 323 323 322 322 323 323 325 325
291 292 296 299 292 293 298 300 301 301 303 302 302 303 303 303 303 304 303 304 306 306 306 306 305 304 304 305 306 305 305 306 307 307 308 309 310 311 313 313 314 314 315 316 316 317 318 322 323 323 322 323 323 322 321 321 321 321 321 321 322 323 325
292 299 301 301 300 300 300 301 302 303 303 303 302 302 302 303 304 305 304 303 303 304 306 307 306 305 304 304 305 305 305 305 306 307 307 307 308 310 312 312 313 313 314 316 316 317 319 322 323 323 323 322 322 321 321 320 319 319 320 320 320 321 323
301 301 303 303 302 299 300 301 302 303 304 303 303 303 304 304 305 305 304 304 303 303 305 306 307 306 305 305 305 304 305 306 306 307 307 308 309 311 312 312 313 314 314 315 316 317 319 322 324 324 322 321 320 319 319 319 319 318 319 319 318 319 319
300 304 303 304 304 303 304 304 304 305 305 305 304 304 304 305 305 306 305 305 305 305 304 304 306 307 306 305 305 305 304 305 306 308 310 311 311 311 311 313 313 313 314 315 317 318 320 322 323 323 321 320 318 317 318 317 317 317 317 318 318 318 319
Wind_Speed
4 8 5 4 3 3 5 4 5 2 3 2 3 2 4 3 3 5 3 5 4 6 2 14 14 15 17 17 18 18 17 17 16 14 13 13 12 12 12 10 14 16 15 15 16 16 15 16 16 16 16 16 17 15 16 16 15 14 16 16 15 14 13
6 7 4 1 6 2 1 5 4 4 0 2 2 4 3 6 10 4 3 5 5 4 3 11 16 17 19 18 18 17 17 18 18 15 13 13 11 12 11 13 11 15 15 16 17 16 17 17 18 17 16 17 15 16 18 18 16 16 15 15 15 14 13
5 8 1 4 6 9 5 4 2 4 5 7 1 1 8 9 7 6 4 6 8 8 6 11 16 17 17 17 17 18 20 19 18 16 17 15 14 12 13 12 13 10 12 12 12 14 16 16 15 15 15 16 15 16 17 19 19 19 19 16 15 13 14
4 6 6 4 8 4 4 3 3 2 3 2 5 1 2 2 5 6 4 2 5 7 7 10 12 13 13 15 16 17 17 16 14 16 15 15 15 14 12 13 11 14 10 13 14 14 15 15 15 15 17 15 18 18 17 17 17 16 16 16 15 15 15
4 3 5 6 7 6 4 2 3 2 3 2 3 3 2 2 3 4 7 4 4 6 7 9 10 10 11 12 13 13 12 13 15 14 14 13 15 14 15 13 13 14 13 11 12 14 14 14 15 16 16 18 17 17 17 18 18 18 18 17 15 14 13
7 6 3 3 6 9 6 4 5 4 2 5 7 4 2 1 1 3 7 7 5 5 5 8 7 9 9 10 11 10 11 13 13 12 14 14 13 15 15 15 15 14 16 13 10 12 12 12 14 15 16 16 17 17 17 17 16 16 18 17 15 14 13
6 7 5 3 4 2 6 7 5 4 2 2 3 4 4 3 4 2 5 7 5 4 5 6 7 8 9 10 10 9 11 12 12 12 14 13 14 15 15 16 16 15 15 14 16 9 7 14 13 15 15 16 17 18 17 16 17 17 18 17 16 14 14
2 6 4 2 6 2 3 5 7 6 4 4 3 3 4 4 4 5 4 3 6 5 5 5 7 8 8 8 10 11 11 11 12 13 13 14 15 16 16 16 15 15 14 16 15 15 16 12 7 14 14 15 15 16 16 16 18 18 17 15 15 14 14
2 2 3 2 1 4 4 4 6 7 6 3 1 1 1 3 3 3 3 6 5 5 5 5 6 8 10 10 12 12 11 11 13 14 14 13 13 15 18 17 17 17 19 18 14 14 14 13 15 8 10 13 15 16 15 16 16 16 15 13 14 14 16
5 5 5 4 3 3 2 2 6 8 10 10 2 3 0 2 1 1 3 6 5 5 5 6 8 8 9 10 11 11 10 12 13 13 14 14 13 14 15 17 19 18 15 13 15 15 13 15 13 13 13 5 13 13 15 16 14 13 14 13 13 14 15
2 4 4 2 1 1 1 4 6 8 8 7 2 1 2 4 5 7 6 6 8 5 5 7 8 9 9 10 10 11 12 13 12 13 13 13 13 12 14 13 13 15 17 17 16 14 14 15 14 13 12 14 12 6 13 14 14 15 13 12 13 13 15
7 5 5 3 2 3 1 4 6 7 8 8 6 3 5 1 5 5 2 2 5 5 5 6 7 8 8 9 10 10 11 12 12 12 12 15 16 16 15 16 17 15 14 16 17 15 16 15 15 13 13 13 11 12 7 10 12 13 12 13 12 12 14
5 3 5 3 2 3 2 4 4 5 6 7 8 7 4 1 2 5 8 6 7 5 5 6 7 7 8 9 10 10 9 10 12 13 15 16 16 16 16 15 15 14 14 14 14 15 14 15 16 15 14 13 13 12 11 12 7 13 12 13 13 14 14
6 5 3 2 4 3 3 5 5 3 4 6 6 7 7 8 10 12 11 10 8 5 5 5 6 6 7 6 7 9 12 13 12 13 15 15 15 16 16 15 14 12 13 13 13 13 14 15 16 15 14 13 13 12 12 10 11 6 10 11 13 13 14
4 2 2 1 4 2 5 5 4 4 5 6 6 6 8 9 10 9 10 10 7 5 3 3 5 5 4 6 10 11 11 12 13 14 14 14 15 15 15 14 14 13 13 13 13 13 14 15 15 13 12 12 12 13 11 11 10 9 7 10 13 15 14
4 1 2 2 3 2 4 5 5 5 4 5 4 3 3 2 7 7 7 5 4 4 3 2 4 5 8 10 9 9 10 11 12 12 13 14 14 15 14 13 13 13 14 13 14 14 13 13 14 13 13 12 12 12 12 12 11 10 9 7 11 13 13
4 3 2 3 1 4 3 3 3 2 5 6 6 5 4 4 1 3 3 4 5 3 2 1 3 4 5 8 8 9 10 11 11 11 13 12 12 13 13 13 13 12 13 12 12 13 11 12 12 13 12 12 12 12 12 12 11 10 10 8 8 10 11
5 5 0 1 3 5 2 5 2 1 3 3 5 6 5 5 1 4 4 6 4 3 3 3 4 4 3 4 6 7 9 9 10 11 11 11 12 11 12 13 12 11 10 11 11 11 11 11 11 11 10 11 10 10 10 11 11 11 11 10 7 9 9
4 4 1 3 5 4 5 1 1 1 1 2 7 7 6 5 5 6 6 6 4 4 4 4 4 4 2 1 3 7 9 10 10 11 11 12 12 12 12 12 13 12 10 10 11 12 13 12 10 10 11 10 10 9 10 11 11 11 12 11 11 9 7
2 1 4 2 1 4 2 2 2 2 4 7 10 7 5 6 5 3 4 4 4 4 4 5 5 5 3 5 1 5 8 10 10 11 10 12 12 12 11 12 12 12 12 12 11 11 11 12 11 10 10 10 10 10 9 10 10 10 11 11 11 11 12
3 2 5 1 2 2 2 3 3 4 2 6 4 3 4 2 3 3 3 3 3 4 5 7 9 7 2 6 4 3 9 11 11 11 11 11 11 11 11 11 12 11 11 11 11 10 10 10 12 11 11 10 9 9 10 10 10 9 10 11 11 11 11
3 4 4 3 4 6 5 2 2 1 2 1 1 1 3 2 2 2 2 2 3 3 5 6 8 7 4 5 4 3 10 12 12 12 11 11 11 12 11 11 10 11 11 11 11 10 10 9 10 10 11 10 9 9 10 10 11 10 10 10 11 12 11
5 5 5 4 3 2 4 8 5 3 1 3 3 2 4 5 1 2 2 2 3 4 5 5 6 4 2 3 2 6 12 13 13 13 11 11 11 12 12 11 11 11 11 11 12 11 10 11 11 11 11 11 8 8 9 10 10 10 10 10 10 10 12
4 4 4 3 3 1 7 8 6 4 3 5 4 5 2 7 3 1 1 3 4 4 4 4 3 2 4 4 5 10 13 14 13 12 12 12 12 12 12 12 11 11 10 10 11 11 11 10 10 10 10 9 9 8 8 8 9 10 11 10 10 10 9
5 6 4 2 3 2 4 7 5 3 5 5 5 5 4 5 2 0 2 3 3 4 5 3 4 2 4 7 10 12 12 13 14 13 13 13 12 13 13 12 12 10 9 9 10 11 8 8 8 9 9 8 8 8 7 7 9 9 9 9 10 10 10
6 5 5 4 2 3 4 4 2 3 4 5 5 4 2 3 3 2 2 3 3 4 4 4 5 7 8 9 9 10 11 12 12 13 14 14 14 13 13 13 12 10 11 9 10 11 10 8 7 7 8 8 8 8 7 6 8 9 9 9 10 11 11
1 2 5 1 4 3 1 7 3 2 6 1 3 2 3 3 1 1 2 2 3 3 5 6 7 9 9 9 10 9 10 11 12 13 14 15 14 14 14 14 12 11 11 11 10 10 10 9 7 6 7 8 8 8 8 9 7 8 9 9 9 11 11
2 5 6 3 2 6 2 3 2 3 2 2 3 2 1 2 1 2 3 3 3 4 6 8 8 9 10 10 9 11 11 10 11 11 12 13 14 14 14 14 14 12 12 11 11 9 9 8 7 6 6 7 7 9 10 9 9 8 8 9 9 10 10
5 1 1 3 2 3 2 1 2 2 3 3 3 2 0 2 0 1 3 5 5 5 8 9 10 10 9 10 12 13 13 13 13 13 13 13 14 15 15 15 14 13 12 13 12 11 8 9 7 6 5 6 7 8 8 9 10 9 8 8 8 8 10
2 4 3 3 4 4 2 2 0 1 2 4 3 1 1 1 2 2 4 6 7 8 8 9 9 10 11 13 13 13 13 14 14 14 14 14 13 15 15 15 14 14 13 13 13 12 10 8 7 5 5 6 7 7 7 8 9 10 9 9 9 9 10
2 3 5 8 9 6 5 3 2 2 2 4 3 1 2 2 3 4 4 6 7 9 9 9 10 11 12 13 13 14 13 13 14 15 15 15 15 15 16 16 15 13 13 13 13 13 13 9 6 5 6 6 6 5 6 6 7 9 9 8 9 9 10
6 2 4 6 5 5 3 3 4 5 6 5 4 3 2 3 4 4 5 5 7 7 8 9 11 11 12 13 13 13 13 13 14 14 15 16 17 16 16 17 16 16 14 14 14 13 12 9 7 5 5 6 5 6 6 5 5 7 9 9 7 8 11
6 2 5 4 3 7 7 6 6 4 5 4 5 4 4 4 4 4 5 5 7 8 9 10 10 11 12 12 13 14 14 14 13 13 14 15 16 17 17 16 16 16 16 15 14 14 13 10 7 5 5 5 5 6 5 6 6 7 8 10 10 7 8
5 6 4 10 6 5 6 8 9 8 6 4 3 3 4 4 4 4 6 6 6 8 9 9 9 11 11 13 13 14 13 13 15 15 15 15 16 16 16 15 17 19 19 17 16 14 13 10 7 6 4 5 6 5 5 5 7 7 8 9 10 8 6
6 3 5 8 4 1 4 7 8 7 6 5 5 4 4 4 3 4 6 7 8 9 9 8 10 11 12 13 13 14 13 14 15 15 16 16 15 16 17 17 18 18 19 18 17 15 13 9 7 5 5 5 5 4 4 5 6 7 7 8 9 9 8
3 2 5 7 5 4 5 7 8 7 6 5 5 4 3 4 4 5 6 6 8 9 10 10 10 11 12 13 14 15 15 15 16 16 16 16 16 16 16 15 17 19 20 19 18 16 13 11 7 5 6 5 4 3 3 5 6 7 8 7 8 9 9
6 4 5 7 5 5 5 6 5 5 6 5 4 4 3 3 4 5 6 7 7 8 10 10 11 9 12 13 13 14 14 15 15 17 18 17 17 15 15 16 17 17 16 16 15 13 11 10 8 8 5 4 2 2 4 5 6 7 7 8 9 9 9
Wind_Direction
15 1 332 34 316 213 148 192 187 67 23 301 111 91 17 46 184 140 49 134 86 98 229 28 18 17 22 21 20 18 15 13 17 18 10 3 351 349 340 243 204 203 199 196 199 198 194 191 187 187 184 179 181 182 184 188 190 185 187 188 190 192 194
17 349 289 243 42 337 154 196 104 79 76 352 306 181 150 191 191 105 52 84 54 190 155 8 12 16 17 16 16 17 20 19 21 16 8 358 354 347 337 336 239 211 204 199 200 199 197 193 191 192 183 182 181 182 184 187 187 187 188 189 192 192 191
343 354 147 181 38 21 14 60 60 243 139 196 72 258 180 177 181 122 102 80 74 28 25 2 12 11 8 10 11 16 19 17 15 10 6 3 2 1 357 347 336 252 208 202 195 198 200 196 191 192 186 187 187 187 189 190 190 190 188 190 191 191 191
316 22 20 27 331 25 76 210 86 27 297 1 168 298 359 269 143 150 111 193 68 37 23 14 12 11 13 12 22 24 18 16 14 11 7 8 8 5 360 355 346 338 259 205 197 194 198 195 192 194 192 194 195 194 190 192 193 191 190 191 188 188 190
237 46 23 53 14 357 19 70 35 39 12 317 354 63 355 302 164 166 138 138 77 45 25 19 13 16 19 19 25 25 20 18 16 13 12 9 11 11 8 5 1 355 341 230 206 199 198 198 196 193 194 195 198 197 195 193 188 188 190 192 191 191 189
53 86 25 357 8 30 35 30 50 354 322 160 189 156 139 352 248 152 166 114 89 48 38 17 11 21 27 23 21 27 22 20 16 17 18 18 16 15 15 14 15 11 8 349 215 192 194 194 194 196 196 194 196 197 199 196 194 193 192 191 192 189 191
98 117 116 14 352 304 41 37 32 350 8 317 275 189 162 128 57 35 82 115 91 32 27 21 18 20 26 23 20 26 27 20 15 11 13 19 27 25 21 21 22 23 17 16 11 347 232 198 195 201 198 198 196 199 198 196 197 196 196 194 191 187 188
209 237 280 303 0 339 214 46 26 23 27 344 350 14 80 106 130 152 134 86 109 66 30 30 28 28 29 31 27 25 25 21 17 12 9 14 19 23 26 24 24 24 28 25 19 13 13 357 254 207 200 197 195 197 198 199 200 198 197 194 190 186 188
179 178 165 156 143 32 49 13 13 10 16 42 356 34 294 100 28 359 170 142 136 81 47 34 30 24 31 29 30 24 21 20 18 13 12 8 12 21 25 25 23 24 27 23 19 16 13 8 8 335 220 195 196 195 194 199 201 201 198 196 193 189 190
178 187 202 181 178 25 357 4 347 25 17 7 300 155 146 100 80 319 89 104 96 107 71 56 34 20 26 28 23 24 28 24 20 16 16 15 12 17 19 23 23 24 23 20 21 17 14 18 11 7 2 277 208 198 198 194 192 191 203 199 197 192 193
300 55 69 31 325 70 59 2 9 12 8 2 352 25 99 98 134 97 43 86 126 109 63 49 42 34 23 22 21 23 21 19 20 19 16 18 19 15 19 20 18 20 19 18 17 15 16 17 16 14 9 9 356 270 209 200 190 188 195 195 196 195 196
89 107 94 97 35 82 61 355 9 8 14 359 28 53 84 11 142 91 96 170 126 89 63 50 44 35 27 21 19 20 22 21 20 16 14 19 22 20 17 20 19 15 12 15 14 12 13 13 14 14 15 12 3 1 333 222 198 191 188 191 189 195 198
85 59 91 102 85 43 32 13 7 17 13 40 57 48 52 332 326 121 147 144 109 93 63 48 46 36 27 21 13 16 16 22 21 20 20 19 20 19 19 16 14 11 11 8 5 9 8 11 11 11 11 7 6 1 359 352 253 203 191 189 190 194 197
96 71 65 23 38 73 83 48 48 40 55 64 70 70 58 79 101 113 123 112 93 57 62 31 33 28 31 28 21 19 22 22 19 23 24 21 19 17 17 14 9 5 5 4 4 3 8 11 9 8 5 4 2 0 359 351 353 294 202 189 194 203 203
102 43 353 360 32 28 99 70 75 81 101 83 72 83 84 98 100 121 122 114 94 58 39 57 30 21 29 41 35 28 21 18 21 24 22 20 16 16 15 12 9 4 1 3 2 4 7 5 5 4 359 358 354 359 356 356 347 341 305 211 197 202 208
127 162 329 36 16 91 102 95 77 70 115 105 75 96 54 94 124 142 147 132 111 78 70 65 23 20 26 32 29 29 21 17 20 19 21 19 13 11 8 5 7 5 2 2 1 1 360 2 1 358 358 353 355 353 354 355 347 338 329 294 224 211 209
135 137 277 358 261 171 188 153 92 94 90 100 98 78 60 61 51 163 164 99 97 105 48 41 37 15 19 28 27 22 21 20 14 15 16 14 13 7 1 2 3 3 1 357 358 353 357 358 357 356 352 351 354 349 347 349 345 346 342 318 272 227 214
140 165 334 270 204 201 176 77 65 247 87 136 143 110 87 71 353 90 86 103 123 116 81 43 24 353 0 17 33 30 24 14 12 8 8 9 8 4 2 359 356 356 357 357 351 353 356 352 356 348 348 348 342 343 342 341 354 354 352 348 316 257 219
153 149 192 200 221 202 79 80 100 295 115 130 117 107 80 78 81 112 111 93 70 50 33 22 351 335 265 204 24 34 28 16 13 5 360 1 1 0 1 353 351 351 350 350 349 351 354 350 351 349 347 348 340 343 352 352 356 359 358 357 2 343 257
87 197 193 219 188 57 352 74 66 116 107 125 126 108 71 37 41 67 107 87 66 46 28 0 345 327 257 186 105 34 26 18 8 1 357 352 349 354 351 349 346 343 345 345 346 345 341 346 349 353 346 340 343 346 349 2 357 1 357 358 1 356 358
210 212 203 274 43 238 113 156 168 185 169 173 210 222 140 47 33 38 74 79 48 38 23 4 349 340 191 191 181 50 17 4 358 356 354 347 344 338 338 343 340 335 335 336 338 335 340 341 346 347 344 342 342 348 352 356 357 359 3 359 355 355 348
223 185 194 200 185 210 179 140 95 350 27 23 37 327 149 159 76 53 82 53 35 19 14 8 350 324 241 228 172 32 359 350 344 343 340 343 345 340 334 331 333 339 335 334 331 334 334 342 343 337 336 340 343 354 355 352 353 352 2 0 353 345 341
178 206 220 207 194 132 100 162 167 133 138 178 165 233 232 147 142 73 13 13 14 1 359 354 345 339 284 270 320 360 344 335 335 332 329 334 336 336 336 331 331 333 334 326 323 326 334 341 342 336 333 333 344 354 356 352 351 349 350 350 348 339 336
210 208 213 225 216 166 162 155 161 156 201 184 217 271 204 151 174 167 357 336 339 343 335 328 316 314 298 307 322 339 328 323 321 320 324 325 329 328 327 331 331 326 318 317 319 329 335 335 332 334 332 330 337 350 354 348 349 346 343 338 330 331 324
195 210 230 312 238 190 161 170 169 152 196 205 239 240 95 152 166 185 301 306 322 318 316 318 305 306 320 306 310 313 314 316 315 319 320 319 321 319 322 324 326 317 318 315 314 317 323 322 328 333 332 326 330 336 343 354 348 336 332 329 328 327 326
227 215 238 246 304 53 143 142 192 209 188 211 222 77 124 150 173 197 260 290 287 293 290 293 286 299 301 298 296 297 306 309 308 311 314 316 316 316 319 318 316 315 315 313 308 313 318 322 326 328 328 325 325 327 328 351 340 325 329 332 328 323 331
56 191 232 228 250 114 116 135 146 182 238 61 72 147 147 173 213 245 246 265 292 297 295 289 289 291 298 303 301 299 299 299 307 312 315 315 315 316 317 314 313 314 313 311 307 302 305 313 322 321 320 322 326 328 330 335 334 330 326 332 330 325 324
233 197 208 218 34 111 164 215 210 117 19 70 132 135 160 140 299 308 305 283 297 304 294 303 303 301 302 297 305 308 303 301 297 300 305 306 309 308 307 307 309 310 307 304 302 297 294 300 307 311 313 314 322 327 330 328 329 330 329 327 326 327 323
235 258 16 72 157 114 125 100 42 77 96 123 143 115 186 286 200 313 286 301 310 307 306 303 302 304 301 305 311 309 309 307 304 302 303 305 305 306 308 307 308 305 301 303 301 295 287 287 292 296 298 304 315 322 326 328 330 331 328 323 321 326 325
257 264 248 136 175 207 183 172 111 285 150 151 149 157 253 205 301 300 299 309 309 307 309 302 302 299 305 308 308 308 308 307 306 305 305 303 302 302 304 303 304 303 300 295 294 292 287 274 275 280 287 294 304 312 321 323 325 324 324 327 322 326 325
184 223 155 209 205 184 211 220 228 221 203 179 173 196 224 278 288 294 292 296 299 303 301 298 298 300 305 305 305 308 308 308 306 306 305 304 304 305 304 303 304 300 299 294 291 292 290 284 270 269 284 293 289 307 316 317 322 322 322 320 322 322 325
216 266 156 207 201 189 205 250 224 204 189 195 195 220 260 273 280 281 289 295 291 298 297 302 302 303 306 304 307 308 310 308 308 305 303 303 303 302 301 300 300 297 289 284 284 288 287 283 268 259 268 281 293 308 313 309 317 318 310 311 317 321 322
227 263 242 211 205 254 248 220 215 185 173 184 201 220 240 257 274 284 281 282 292 296 299 302 304 306 306 308 308 308 308 308 306 304 302 300 299 300 301 299 298 294 290 285 283 282 282 281 270 264 262 273 293 306 310 313 318 319 313 310 310 311 321
227 233 199 166 213 229 176 182 182 185 185 194 217 226 245 253 273 286 302 299 298 300 300 301 307 306 308 308 310 307 306 304 305 305 304 301 299 297 298 298 295 293 288 283 280 279 279 276 269 259 257 272 291 300 309 312 318 315 314 310 307 311 318
248 202 170 183 209 33 143 168 173 181 181 199 219 237 264 276 274 293 301 304 311 311 308 312 304 305 308 309 308 304 304 305 306 304 302 301 299 297 298 297 295 293 290 285 282 279 276 273 260 243 257 276 288 294 301 312 316 311 312 310 305 306 315
252 95 177 171 176 197 151 158 163 175 179 199 223 244 247 264 291 302 303 305 310 308 313 308 308 307 309 310 310 307 307 307 308 306 303 297 293 291 290 290 294 295 291 285 282 278 278 272 255 242 261 272 285 293 301 313 310 306 305 302 301 303 308
231 161 171 180 171 136 122 149 164 165 178 197 222 239 252 275 290 298 299 308 302 309 309 309 309 311 313 312 312 310 309 308 306 304 303 300 297 293 291 291 291 290 289 285 280 276 276 270 264 260 259 270 285 306 316 313 308 302 298 297 297 298 302